| time (UTC) | temp F | wind direction | speed knots | gust knots | rain 1hr in | rain 24hr in | rain mn in | humidity % | barometer mb |
| 20260831013426 | 69 | 261 | 0.0 | 0.9 | 0.00 | 0.11 | 0.11 | 63 | 1017.8 |
| 20260831012425 | 71 | 261 | 0.0 | 1.7 | 0.00 | 0.11 | 0.11 | 60 | 1017.8 |
| 20260831011902 | 71 | 261 | 0.9 | 1.7 | 0.00 | 0.11 | 0.11 | 55 | 1017.7 |
| 20260831010424 | 72 | 261 | 0.9 | 3.5 | 0.00 | 0.11 | 0.11 | 56 | 1017.6 |
| 20260831005425 | 73 | 81 | 0.9 | 5.2 | 0.00 | 0.11 | 0.11 | 52 | 1017.6 |
| 20260831004426 | 74 | 81 | 1.7 | 3.5 | 0.00 | 0.11 | 0.11 | 52 | 1017.8 |
| 20260831003426 | 75 | 297 | 3.5 | 6.1 | 0.00 | 0.11 | 0.11 | 49 | 1017.7 |
| 20260831002859 | 78 | 303 | 6.1 | 10.4 | 0.00 | 0.11 | 0.11 | 43 | 1017.7 |
| 20260831001421 | 79 | 179 | 6.1 | 10.4 | 0.00 | 0.11 | 0.11 | 37 | 1017.4 |
| 20260831000859 | 79 | 174 | 2.6 | 9.6 | 0.00 | 0.11 | 0.11 | 38 | 1017.6 |
| 20260830235422 | 79 | 236 | 0.9 | 3.5 | 0.00 | 0.11 | 0.11 | 40 | 1017.4 |
| 20260830234422 | 80 | 243 | 0.9 | 4.3 | 0.00 | 0.11 | 0.11 | 38 | 1017.4 |
| 20260830233420 | 80 | 181 | 5.2 | 11.3 | 0.00 | 0.11 | 0.11 | 37 | 1017.3 |
| 20260830232420 | 79 | 170 | 7.0 | 15.6 | 0.00 | 0.11 | 0.11 | 41 | 1017.1 |
| 20260830231419 | 78 | 175 | 5.2 | 12.2 | 0.00 | 0.11 | 0.11 | 40 | 1017.0 |
| 20260830230418 | 78 | 193 | 6.1 | 11.3 | 0.00 | 0.11 | 0.11 | 40 | 1017.1 |
| 20260830225418 | 78 | 140 | 7.0 | 13.0 | 0.00 | 0.11 | 0.11 | 42 | 1016.9 |
| 20260830224419 | 77 | 188 | 9.6 | 16.5 | 0.00 | 0.11 | 0.11 | 41 | 1017.0 |
| 20260830223418 | 76 | 172 | 5.2 | 13.9 | 0.00 | 0.11 | 0.11 | 41 | 1017.1 |
| 20260830222419 | 74 | 225 | 3.5 | 7.8 | 0.00 | 0.11 | 0.11 | 47 | 1017.3 |
| 20260830221418 | 72 | 195 | 3.5 | 7.8 | 0.00 | 0.11 | 0.11 | 50 | 1017.6 |
| 20260830220420 | 71 | 46 | 1.7 | 5.2 | 0.00 | 0.11 | 0.11 | 62 | 1017.7 |
| 20260830220336 | 71 | 47 | 3.5 | 7.0 | 0.00 | 0.11 | 0.11 | 60 | 1017.9 |
| 20260830214416 | 72 | 52 | 4.3 | 9.6 | 0.00 | 0.11 | 0.11 | 56 | 1018.3 |
| 20260830213418 | 70 | 196 | 0.9 | 6.1 | 0.00 | 0.11 | 0.11 | 59 | 1018.6 |
| 20260830212404 | 68 | 44 | 0.9 | 6.1 | 0.02 | 0.11 | 0.11 | 73 | 1019.0 |
| 20260830211405 | 69 | 60 | 3.5 | 6.1 | 0.09 | 0.11 | 0.11 | 63 | 1019.2 |
| 20260830210404 | 68 | 70 | 5.2 | 9.6 | 0.09 | 0.11 | 0.11 | 64 | 1019.1 |
| 20260830205404 | 68 | 91 | 2.6 | 6.1 | 0.09 | 0.11 | 0.11 | 67 | 1019.2 |
| 20260830204849 | 67 | 224 | 2.6 | 8.7 | 0.09 | 0.11 | 0.11 | 63 | 1019.3 |
| 20260830203405 | 68 | 261 | 7.0 | 15.6 | 0.09 | 0.11 | 0.11 | 61 | 1019.3 |
| 20260830202404 | 70 | 261 | 8.7 | 26.9 | 0.09 | 0.09 | 0.10 | 58 | 1019.8 |
| 20260830201404 | 72 | 305 | 1.7 | 7.8 | 0.02 | 0.02 | 0.02 | 67 | 1019.1 |
| 20260830200402 | 72 | 35 | 1.7 | 4.3 | 0.02 | 0.02 | 0.02 | 66 | 1018.1 |
| 20260830195403 | 71 | 320 | 1.7 | 2.6 | 0.02 | 0.02 | 0.02 | 73 | 1017.8 |
| 20260830194402 | 71 | 21 | 0.9 | 3.5 | 0.02 | 0.02 | 0.02 | 71 | 1017.2 |
| 20260830193402 | 72 | 347 | 2.6 | 6.1 | 0.02 | 0.02 | 0.02 | 68 | 1017.2 |
| 20260830192402 | 76 | 314 | 8.7 | 16.5 | 0.00 | 0.00 | 0.00 | 51 | 1017.1 |
| 20260830191402 | 82 | 266 | 0.9 | 3.5 | 0.00 | 0.00 | 0.00 | 39 | 1016.9 |
| 20260830190402 | 82 | 84 | 3.5 | 10.4 | 0.00 | 0.00 | 0.00 | 37 | 1016.3 |
| 20260830185403 | 83 | 78 | 6.1 | 10.4 | 0.00 | 0.00 | 0.00 | 36 | 1015.9 |
| 20260830184404 | 83 | 135 | 7.8 | 13.0 | 0.00 | 0.00 | 0.00 | 36 | 1016.0 |
| 20260830183357 | 83 | 144 | 5.2 | 9.6 | 0.00 | 0.00 | 0.00 | 36 | 1016.2 |
| 20260830182358 | 82 | 84 | 7.0 | 12.2 | 0.00 | 0.00 | 0.00 | 37 | 1016.2 |
| 20260830181357 | 82 | 89 | 6.1 | 10.4 | 0.00 | 0.00 | 0.00 | 38 | 1016.2 |
| 20260830180357 | 82 | 109 | 5.2 | 10.4 | 0.00 | 0.00 | 0.00 | 39 | 1016.3 |
| 20260830175357 | 82 | 119 | 4.3 | 10.4 | 0.00 | 0.00 | 0.00 | 38 | 1016.5 |
| 20260830174358 | 82 | 58 | 5.2 | 9.6 | 0.00 | 0.00 | 0.00 | 36 | 1016.6 |
| 20260830173356 | 82 | 276 | 1.7 | 7.0 | 0.00 | 0.00 | 0.00 | 36 | 1016.7 |
| 20260830172356 | 80 | 317 | 1.7 | 6.1 | 0.00 | 0.00 | 0.00 | 38 | 1016.9 |
| 20260830171357 | 80 | 203 | 1.7 | 6.1 | 0.00 | 0.00 | 0.00 | 40 | 1017.0 |
| 20260830170352 | 80 | 332 | 0.9 | 3.5 | 0.00 | 0.00 | 0.00 | 39 | 1017.0 |
| 20260830165351 | 79 | 289 | 2.6 | 3.5 | 0.00 | 0.00 | 0.00 | 38 | 1017.4 |
| 20260830164351 | 79 | 6 | 2.6 | 6.1 | 0.00 | 0.00 | 0.00 | 40 | 1017.3 |
| 20260830163832 | 78 | 328 | 2.6 | 3.5 | 0.00 | 0.00 | 0.00 | 40 | 1017.4 |
| 20260830162350 | 78 | 307 | 3.5 | 7.0 | 0.00 | 0.00 | 0.00 | 41 | 1017.7 |
| 20260830161823 | 78 | 220 | 4.3 | 7.8 | 0.00 | 0.00 | 0.00 | 41 | 1017.9 |
| 20260830160350 | 77 | 213 | 5.2 | 11.3 | 0.00 | 0.00 | 0.00 | 44 | 1017.9 |
| 20260830155350 | 76 | 212 | 4.3 | 8.7 | 0.00 | 0.00 | 0.00 | 44 | 1017.9 |
| 20260830154833 | 76 | 230 | 4.3 | 7.8 | 0.00 | 0.00 | 0.00 | 43 | 1017.8 |
| 20260830153348 | 76 | 228 | 6.1 | 13.0 | 0.00 | 0.00 | 0.00 | 44 | 1017.8 |
| 20260830152348 | 76 | 214 | 6.1 | 15.6 | 0.00 | 0.00 | 0.00 | 42 | 1018.0 |
| 20260830151348 | 76 | 223 | 11.3 | 20.9 | 0.00 | 0.00 | 0.00 | 43 | 1018.0 |
| 20260830150821 | 76 | 220 | 9.6 | 21.7 | 0.00 | 0.00 | 0.00 | 42 | 1018.1 |
| 20260830145347 | 74 | 212 | 6.1 | 12.2 | 0.00 | 0.00 | 0.00 | 46 | 1018.0 |
| 20260830144349 | 74 | 208 | 4.3 | 7.0 | 0.00 | 0.00 | 0.00 | 48 | 1017.7 |
| 20260830143831 | 73 | 200 | 0.9 | 3.5 | 0.00 | 0.00 | 0.00 | 49 | 1017.3 |
| 20260830142350 | 73 | 132 | 2.6 | 7.8 | 0.00 | 0.00 | 0.00 | 48 | 1017.3 |
| 20260830141346 | 73 | 205 | 7.0 | 10.4 | 0.00 | 0.00 | 0.00 | 47 | 1017.3 |
| 20260830140347 | 73 | 212 | 7.8 | 13.0 | 0.00 | 0.00 | 0.00 | 47 | 1017.4 |
| 20260830135345 | 73 | 214 | 6.1 | 10.4 | 0.00 | 0.00 | 0.00 | 48 | 1017.4 |
| 20260830134345 | 71 | 207 | 4.3 | 9.6 | 0.00 | 0.00 | 0.00 | 50 | 1017.3 |
| 20260830133345 | 70 | 227 | 3.5 | 7.8 | 0.00 | 0.00 | 0.00 | 52 | 1017.4 |
| 20260830132343 | 70 | 181 | 3.5 | 10.4 | 0.00 | 0.00 | 0.00 | 52 | 1017.3 |
| 20260830131826 | 67 | 75 | 1.7 | 3.5 | 0.00 | 0.00 | 0.00 | 59 | 1017.2 |
| 20260830130818 | 68 | 68 | 0.0 | 2.6 | 0.00 | 0.00 | 0.00 | 56 | 1017.2 |
| 20260830125343 | 69 | 119 | 0.0 | 1.7 | 0.00 | 0.00 | 0.00 | 53 | 1017.2 |
| 20260830124341 | 69 | 119 | 0.0 | 2.6 | 0.00 | 0.00 | 0.00 | 54 | 1017.2 |
| 20260830123341 | 70 | 350 | 0.0 | 1.7 | 0.00 | 0.00 | 0.00 | 51 | 1017.0 |
| 20260830122342 | 71 | 217 | 0.9 | 3.5 | 0.00 | 0.00 | 0.00 | 50 | 1016.7 |
| 20260830121342 | 72 | 184 | 4.3 | 9.6 | 0.00 | 0.00 | 0.00 | 47 | 1016.6 |
| 20260830120342 | 72 | 219 | 7.0 | 13.9 | 0.00 | 0.00 | 0.00 | 47 | 1016.5 |
| 20260830115343 | 71 | 200 | 3.5 | 8.7 | 0.00 | 0.00 | 0.00 | 48 | 1016.5 |
| 20260830114342 | 71 | 195 | 2.6 | 5.2 | 0.00 | 0.00 | 0.00 | 48 | 1016.5 |
| 20260830113342 | 71 | 206 | 2.6 | 6.1 | 0.00 | 0.00 | 0.00 | 48 | 1016.3 |
| 20260830112343 | 70 | 132 | 3.5 | 6.1 | 0.00 | 0.00 | 0.00 | 51 | 1016.3 |
| 20260830111342 | 71 | 174 | 3.5 | 5.2 | 0.00 | 0.00 | 0.00 | 49 | 1016.3 |
| 20260830110342 | 71 | 180 | 3.5 | 4.3 | 0.00 | 0.00 | 0.00 | 49 | 1016.0 |
| 20260830105341 | 72 | 199 | 4.3 | 7.0 | 0.00 | 0.00 | 0.00 | 47 | 1016.0 |
| 20260830104342 | 73 | 167 | 6.1 | 10.4 | 0.00 | 0.00 | 0.00 | 46 | 1016.0 |
| 20260830103336 | 72 | 195 | 7.0 | 10.4 | 0.00 | 0.00 | 0.00 | 47 | 1016.3 |
| 20260830102337 | 73 | 240 | 7.8 | 13.9 | 0.00 | 0.00 | 0.00 | 47 | 1016.4 |
| 20260830101336 | 71 | 248 | 4.3 | 9.6 | 0.00 | 0.00 | 0.00 | 49 | 1016.4 |
| 20260830100335 | 70 | 167 | 2.6 | 7.0 | 0.00 | 0.00 | 0.00 | 51 | 1016.3 |
| 20260830095337 | 70 | 345 | 0.0 | 0.9 | 0.00 | 0.00 | 0.00 | 49 | 1016.0 |
| 20260830094335 | 71 | 233 | 1.7 | 6.1 | 0.00 | 0.00 | 0.00 | 49 | 1016.0 |
| 20260830093335 | 71 | 174 | 4.3 | 8.7 | 0.00 | 0.00 | 0.00 | 49 | 1016.2 |
| 20260830092337 | 71 | 198 | 7.8 | 13.0 | 0.00 | 0.00 | 0.00 | 47 | 1016.0 |
| 20260830091336 | 72 | 226 | 8.7 | 11.3 | 0.00 | 0.00 | 0.00 | 47 | 1016.3 |
| 20260830090330 | 72 | 269 | 5.2 | 9.6 | 0.00 | 0.00 | 0.00 | 47 | 1016.2 |
| 20260830085809 | 72 | 284 | 7.8 | 12.2 | 0.00 | 0.00 | 0.00 | 47 | 1016.3 |
| 20260830084327 | 71 | 256 | 7.0 | 12.2 | 0.00 | 0.00 | 0.00 | 48 | 1016.2 |
| 20260830083327 | 71 | 261 | 4.3 | 7.0 | 0.00 | 0.00 | 0.00 | 48 | 1016.4 |
| 20260830082328 | 70 | 273 | 4.3 | 7.0 | 0.00 | 0.00 | 0.00 | 50 | 1016.5 |
| 20260830081327 | 68 | 264 | 3.5 | 7.0 | 0.00 | 0.00 | 0.00 | 55 | 1016.5 |
| 20260830080328 | 65 | 238 | 0.9 | 3.5 | 0.00 | 0.00 | 0.00 | 63 | 1016.5 |
| 20260830075808 | 65 | 279 | 0.0 | 2.6 | 0.00 | 0.00 | 0.00 | 65 | 1016.5 |
| 20260830074328 | 65 | 281 | 0.9 | 3.5 | 0.00 | 0.00 | 0.00 | 66 | 1016.6 |
| 20260830073322 | 64 | 275 | 0.0 | 0.9 | 0.00 | 0.00 | 0.00 | 70 | 1016.6 |
| 20260830072322 | 64 | 275 | 0.0 | 1.7 | 0.00 | 0.00 | 0.00 | 70 | 1016.6 |
| 20260830072248 | 64 | 275 | 0.0 | 2.6 | 0.00 | 0.00 | 0.00 | 73 | 1016.7 |
| 20260830070322 | 65 | 174 | 0.0 | 0.0 | 0.00 | 0.00 | 0.00 | 69 | 1016.9 |
| 20260830065322 | 66 | 178 | 0.0 | 1.7 | 0.00 | 0.00 | 0.00 | 66 | 1017.0 |
| 20260830064321 | 67 | 257 | 0.9 | 2.6 | 0.00 | 0.00 | 0.00 | 64 | 1017.1 |
| 20260830063322 | 67 | 263 | 1.7 | 4.3 | 0.00 | 0.00 | 0.00 | 65 | 1017.2 |
| 20260830062321 | 68 | 219 | 2.6 | 5.2 | 0.00 | 0.00 | 0.00 | 63 | 1017.2 |
| 20260830061324 | 68 | 157 | 0.9 | 3.5 | 0.00 | 0.00 | 0.00 | 62 | 1017.4 |
| 20260830060321 | 68 | 327 | 0.0 | 0.0 | 0.00 | 0.00 | 0.00 | 60 | 1017.7 |
| 20260830055351 | 69 | 248 | 0.9 | 3.5 | 0.00 | 0.16 | 0.16 | 58 | 1017.7 |
| 20260830054353 | 68 | 153 | 2.6 | 5.2 | 0.00 | 0.16 | 0.16 | 57 | 1017.8 |
| 20260830053346 | 69 | 142 | 0.9 | 3.5 | 0.00 | 0.16 | 0.16 | 55 | 1017.6 |
| 20260830052345 | 71 | 278 | 3.5 | 6.1 | 0.00 | 0.16 | 0.16 | 50 | 1017.3 |
| 20260830051345 | 70 | 257 | 0.9 | 3.5 | 0.00 | 0.16 | 0.16 | 53 | 1017.4 |
| 20260830050346 | 69 | 186 | 0.0 | 0.0 | 0.00 | 0.16 | 0.16 | 55 | 1017.4 |
| 20260830045344 | 70 | 186 | 1.7 | 5.2 | 0.00 | 0.16 | 0.16 | 51 | 1017.6 |
| 20260830044346 | 69 | 252 | 0.9 | 2.6 | 0.00 | 0.16 | 0.16 | 57 | 1017.6 |
| 20260830043345 | 68 | 274 | 0.0 | 0.0 | 0.00 | 0.16 | 0.16 | 58 | 1017.8 |
| 20260830042346 | 69 | 18 | 0.0 | 0.0 | 0.00 | 0.16 | 0.16 | 66 | 1018.0 |
| 20260830041838 | 68 | 18 | 0.0 | 0.0 | 0.00 | 0.16 | 0.16 | 65 | 1018.1 |
| 20260830040340 | 69 | 59 | 0.9 | 2.6 | 0.00 | 0.16 | 0.16 | 63 | 1018.3 |
| 20260830035829 | 70 | 37 | 0.0 | 1.7 | 0.00 | 0.16 | 0.16 | 60 | 1018.3 |
| 20260830034338 | 71 | 294 | 0.0 | 0.9 | 0.00 | 0.16 | 0.16 | 55 | 1018.1 |
| 20260830033340 | 71 | 311 | 0.0 | 2.6 | 0.00 | 0.16 | 0.16 | 55 | 1018.0 |
| 20260830032340 | 70 | 325 | 0.0 | 1.7 | 0.00 | 0.16 | 0.16 | 57 | 1018.1 |
| 20260830031816 | 70 | 159 | 0.0 | 1.7 | 0.00 | 0.16 | 0.16 | 59 | 1018.0 |
| 20260830030338 | 71 | 188 | 0.9 | 3.5 | 0.00 | 0.16 | 0.16 | 59 | 1017.9 |
| 20260830025813 | 71 | 113 | 2.6 | 6.1 | 0.00 | 0.16 | 0.16 | 61 | 1017.8 |
| 20260830024340 | 71 | 127 | 2.6 | 5.2 | 0.00 | 0.16 | 0.16 | 61 | 1017.9 |
| 20260830023334 | 71 | 159 | 3.5 | 5.2 | 0.00 | 0.16 | 0.16 | 61 | 1018.0 |
| 20260830022334 | 71 | 229 | 4.3 | 6.1 | 0.00 | 0.16 | 0.16 | 60 | 1017.9 |
| 20260830021332 | 72 | 165 | 4.3 | 7.8 | 0.00 | 0.16 | 0.16 | 58 | 1017.8 |
| 20260830020334 | 73 | 165 | 2.6 | 7.0 | 0.00 | 0.16 | 0.16 | 58 | 1017.7 |
| 20260830015333 | 74 | 86 | 3.5 | 8.7 | 0.00 | 0.16 | 0.16 | 56 | 1017.3 |
| 20260830014332 | 76 | 99 | 4.3 | 12.2 | 0.00 | 0.16 | 0.16 | 52 | 1017.2 |